Regional Weather Roundup
Issued by NWS

Home | Current Version | Previous Version | Text Only | Print | Product List | Glossary Off
Versions: 1 2 3 4 5 6 7 8 9 10 11 12 13 14 15 16 17 18 19 20 21 22 23 24 25 26 27 28 29 30 31 32 33 34 35 36 37 38 39 40 41 42 43 44 45 46 47 48 49 50

000
ASUS43 KMKX 231321
RWRWI

WISCONSIN REGIONAL WEATHER ROUNDUP
NATIONAL WEATHER SERVICE MILWAUKEE/SULLIVAN WI
700 AM CST THU FEB 23 2017

NOTE: "FAIR" INDICATES FEW OR NO CLOUDS BELOW 12,000 FEET WITH NO
SIGNIFICANT WEATHER AND/OR OBSTRUCTIONS TO VISIBILITY.

WIZ001-002-006>008-014>016-023>028-231400-
NORTHWEST WISCONSIN

CITY           SKY/WX    TMP DP  RH WIND       PRES   REMARKS
SUPERIOR ARPT  CLEAR     26  22  87 NW7       29.94S WCI  18
ASHLAND        MOCLDY    29  26  89 NW6       29.90R WCI  23
HAYWARD        CLOUDY    31  27  85 N8        29.86F WCI  23
SIREN          PTCLDY    28  25  89 N7        29.90R WCI  21
CUMBERLAND     CLOUDY    30  27  86 N6        29.87R WCI  24
RICE LAKE      CLOUDY    32  28  85 N6        29.89R WCI  26
CHETEK         CLOUDY    32  29  89 CALM      29.88R
LADYSMITH      CLOUDY    33  31  91 N7        29.85R WCI  27
EAU CLAIRE     CLOUDY    36  29  75 NE6       29.86R WCI  31
MENOMONIE      CLOUDY    36  31  83 N7        29.88R WCI  30
NEW RICHMOND   CLOUDY    32  27  82 N8        29.89R WCI  25
OSCEOLA        CLOUDY    31  27  83 N6        29.94R WCI  26
$$

WIZ003>005-009-010-017-018-231400-
NORTH CENTRAL WISCONSIN

CITY           SKY/WX    TMP DP  RH WIND       PRES   REMARKS
MANITOWISH WTR LGT SNOW  29  29 100 N3        29.83R
ARBOR VITAE    CLOUDY    32  30  93 N8          N/A  WCI  25
WOODRUFF       CLOUDY    32  30  93 N8          N/A  WCI  25
RHINELANDER    CLOUDY    31  27  85 N10G18    29.79R WCI  22
EAGLE RIVER    CLOUDY    29  27  94 N8        29.81R WCI  21
LAND O LAKES   CLOUDY    29  27  91 N8        29.83R WCI  21
PHILLIPS       CLOUDY    30  29  95 N7        29.81R WCI  23
TOMAHAWK       CLOUDY    31  27  83 N10       29.81R WCI  23
MEDFORD        CLOUDY    32  28  84 N14       29.82R WCI  22
MERRILL        NOT AVBL
$$

WIZ029-030-035-036-043>047-231400-
CENTRAL WISCONSIN

CITY           SKY/WX    TMP DP  RH WIND       PRES   REMARKS
WAUSAU         CLOUDY    33  28  81 NW10G18   29.80R WCI  25
MOSINEE        CLOUDY    34  30  86 NW10      29.82R WCI  26
MARSHFIELD     MOCLDY    33  28  81 N10       29.81R WCI  25
STEVENS POINT  CLOUDY    33  30  90 NW7       29.81R WCI  26
WAUPACA        MOCLDY    39  32  75 N6        29.81R
WAUTOMA        CLOUDY    39  34  82 NW6       29.80R WCI  35
WISC RAPIDS    MOCLDY    35  30  82 N7        29.83R WCI  29
CAMP DOUGLAS   PTCLDY    36  30  80 N9        29.80R WCI  29
$$

WIZ011>013-019>022-031-037>040-048>050-231400-
NORTHEAST WISCONSIN

CITY           SKY/WX    TMP DP  RH WIND       PRES   REMARKS
ANTIGO         CLOUDY    31  28  90 N8        29.79R WCI  23
SHAWANO        PTCLDY    35  30  85 CALM      29.82R
OCONTO         CLOUDY    36  30  80 NW6       29.79R WCI  31
STURGEON BAY   CLOUDY    35  31  85 NW7       29.78  WCI  29
GREEN BAY      CLOUDY    39  34  82 N8        29.80R WCI  33
MANITOWOC      CLOUDY    39  34  82 NW10      29.77R WCI  32
APPLETON       MOCLDY    37  34  87 N6        29.75R WCI  33
CLINTONVILLE   MOCLDY    36  30  80 N6        29.81R WCI  31
OSHKOSH        CLOUDY    40  36  86 N10       29.76S WCI  33
$$

WIZ032>034-041-042-053>061-231400-
SOUTHWEST WISCONSIN

CITY           SKY/WX    TMP DP  RH WIND       PRES   REMARKS
LA CROSSE      CLOUDY    40  31  70 N9        29.83R WCI  34
SPARTA         PTCLDY    37  32  82 N9        29.84R WCI  30
VIROQUA        CLOUDY    37  32  85 N14       29.82R WCI  28
BOSCOBEL       CLOUDY    43  34  70 N6        29.81R
PRAIRIE DU CHI CLOUDY    41  33  73 NW8       29.82R
PLATTEVILLE    CLEAR     39  38  96 N7        29.78R WCI  34
$$

WIZ056-057-062-063-064-067-068-231400-
SOUTH CENTRAL WISCONSIN

CITY           SKY/WX    TMP DP  RH WIND       PRES   REMARKS
REEDSBURG      CLOUDY    38  34  83 N10G20    29.80R WCI  32
BARABOO/DELLS  CLOUDY    39  33  80 N10G16    29.78R WCI  32
LONE ROCK      CLOUDY    42  33  70 VRB6      29.81R
MINERAL POINT  CLOUDY    41  39  93 N6        29.77S
MADISON        MOCLDY    41  35  79 NW6       29.77R
MIDDLETON      CLOUDY    42  37  82 NW9       29.79R
WATERTOWN      PTCLDY    43  39  87 NW9       29.75R
MONROE         CLEAR     41  37  87 N10       29.74F
JANESVILLE     PTCLDY    39  39 100 NW5       29.75R
$$

WIZ051-052-058>065-066-070>072-231400-
SOUTHEAST WISCONSIN

CITY           SKY/WX    TMP DP  RH WIND       PRES   REMARKS
MILWAUKEE      MOCLDY    47  39  74 NW12G22   29.73R
WAUKESHA       CLOUDY    43  37  81 NW12      29.75R
MILWAUKEE/TIMM CLOUDY    45  36  70 NW8       29.74R
RACINE         MOCLDY    46  39  76 N14       29.75R
KENOSHA        CLEAR     44  40  85 NW6       29.74R
FOND DU LAC    CLOUDY    41  36  82 N12       29.76R
SHEBOYGAN      CLOUDY    40  37  89 N10       29.76R WCI  33
WEST BEND      CLOUDY    43  41  93 N13       29.73S
JUNEAU         CLOUDY    41  38  91 NW9G16    29.75S
$$

LSZ147-162-231400-
LAKE SUPERIOR

STATION/POSITION TIME  TEMP    WIND        PRES    WAVE
                       AIR SEA DIR/SP/G            HT/PER
                 (UTC) (F)     (DEG/KT/KT) (MB)    (FT/S)
DEVILS ISLAND    1300   30     310/  8/  8 1013.5R
PORT WING        1240   32     310/ 10/ 13 1013.2R
SAXON HARBOR     1240   33     300/  7/  9 1012.2R
$$

LMZ867-665-643>646-231400-
LAKE MICHIGAN

STATION/POSITION TIME  TEMP    WIND        PRES    WAVE
                       AIR SEA DIR/SP/G            HT/PER
                 (UTC) (F)     (DEG/KT/KT) (MB)    (FT/S)
CHAMBERS ISLAND  1240   34     320/ 12/ 15 1007.1R
NORTHPORT PIER   1300   34     340/ 15/ 20 1007.5
SISTER BAY       1220   34     350/ 18/ 21   N/A
KEWAUNEE LAKESHO 1254   37     360/  3/  7 1007.8R
SHEBOYGAN LAKESH 1300   40     340/ 12/ 13 1008.1R
PORT WASHINGTON  1240   46     330/  5/ 11 1008.1R
MILWAUKEE LAKESH 1300   46     330/  9/ 12   N/A
KENOSHA   LAKESH 1300   46     330/ 10/ 12 1007.5
$$

TC  - TEMPERATURE IN CELSIUS
VSB - VISIBILITY IN STATUTE MILES
WCI - WIND CHILL INDEX
HX  - HEAT INDEX




USA.gov is the U.S. government's official web portal to all federal, state and local government web resources and services.